Weather observations for the past three days for
Alice, Alice International Airport
Imperial (Metric)
Date Time (cdt) Wind (mph) Vis. (mi.) Weather Sky Cond. Temperature (ºF) Relative Humidity Wind Chill (°F) Heat Index (°F) Pressure Precipitation (in)
Air Dwpt 6 hour altimeter (in) sea level (mb) 1 hr 3 hr 6 hr
Max. Min.
03 14:53 S 7 10.00 A Few Clouds FEW070 102 69.1 35% 109 29.81 1008.9
03 13:53 Vrbl 5 10.00 A Few Clouds FEW060 100 69.1 37% 107 29.84 1009.9
03 12:53 SE 6 G 17 10.00 Fair CLR 98.1 72 99 77 43% 107 29.86 1010.9
03 11:53 S 15 G 20 10.00 Fair CLR 97 73 46% 107 29.89 1011.7
03 10:53 S 16 G 28 10.00 Fair CLR 93 73 52% 102 29.89 1011.9
03 09:53 S 16 G 22 10.00 Fair CLR 89.1 75 63% 99 29.9 1012.3
03 08:53 S 12 10.00 Fair CLR 84 78.1 82% 95 29.91 1012.6
03 07:53 SE 6 8.00 Fair CLR 79 77 94% 83 29.91 1012.5
03 06:53 SE 5 10.00 Fair CLR 78.1 75.9 82.9 78.1 93% 81 29.9 1012.1
03 05:53 S 7 10.00 Fair CLR 79 77 94% 83 29.9 1012.1
03 04:53 S 7 10.00 Fair CLR 79 77 94% 83 29.9 1012.1
03 03:53 S 6 10.00 Fair CLR 80.1 77 90% 86 29.9 1012.3
03 02:53 S 6 10.00 A Few Clouds FEW021 81 77 88% 88 29.91 1012.5
03 01:53 S 10 10.00 A Few Clouds FEW020 82 77 85% 90 29.91 1012.3
03 00:53 S 10 10.00 Partly Cloudy SCT019 82.9 77 91.9 82.9 82% 92 29.92 1012.7
02 23:53 S 14 10.00 Fair CLR 82.9 77 82% 92 29.91 1012.4
02 22:53 S 15 10.00 Fair CLR 84 78.1 82% 95 29.91 1012.3
02 21:53 SE 17 G 25 10.00 Fair CLR 84 78.1 82% 95 29.89 1011.8
02 20:53 SE 16 10.00 Fair CLR 84.9 77 77% 95 29.86 1010.9
02 19:53 SE 15 G 24 10.00 Fair CLR 88 75.9 68% 99 29.85 1010.4
02 18:53 SE 17 G 31 10.00 Fair CLR 91.9 75 105.1 91.9 58% 103 29.84 1010.2
02 17:53 SE 20 G 26 10.00 Fair CLR 97 75 49% 110 29.83 1009.8
02 16:53 SE 17 G 28 10.00 Mostly Cloudy BKN090 BKN110 102 73 40% 114 29.82 1009.4
02 15:53 S 12 G 17 10.00 Mostly Cloudy BKN090 102.9 66 30% 108 29.83 1009.8
02 14:53 SE 6 10.00 Fair CLR 102.9 64.9 29% 107 29.86 1010.8
02 13:53 E 9 10.00 Fair CLR 100.9 68 34% 107 29.89 1011.8
02 12:53 Vrbl 7 10.00 Fair CLR 98.1 71.1 99 73.9 42% 106 29.93 1013.0
02 11:53 SW 10 G 18 10.00 Fair CLR 95 73 49% 105 29.96 1014.0
02 10:53 S 16 10.00 Fair CLR 93 73.9 54% 103 29.97 1014.4
02 09:53 SW 15 10.00 Fair CLR 88 75.9 68% 99 29.97 1014.4
02 08:53 S 7 10.00 Fair CLR 81 77 88% 88 29.97 1014.5
02 07:53 E 3 4.00 Fog/Mist CLR 75 75 100% 72 29.96 1014.1
02 06:53 SE 5 6.00 Fog/Mist CLR 75 75 79 75 100% 72 29.94 1013.7
02 05:53 S 6 9.00 Fair CLR 77 75 94% 78 29.94 1013.6
02 04:53 S 6 9.00 Fair CLR 75.9 75 97% 75 29.93 1013.2
02 03:53 S 5 10.00 Fair CLR 75.9 75 97% 75 29.94 1013.5
02 02:53 S 7 10.00 Fair CLR 77 75 94% 78 29.95 1013.9
02 01:53 S 6 10.00 Fair CLR 78.1 75 90% 81 29.96 1014.1
02 00:53 SE 6 10.00 Fair CLR 79 75.9 93 79 90% 83 29.96 1014.2
01 23:53 S 7 10.00 Fair CLR 81 75.9 85% 87 29.95 1013.9
01 22:53 SE 9 10.00 Fair CLR 82 75.9 82% 89 29.95 1013.9
01 21:53 SE 9 10.00 Fair CLR 82.9 75 77% 90 29.93 1013.2
01 20:53 SE 14 G 21 10.00 Fair CLR 84 75 74% 92 29.9 1012.2
01 19:53 SE 15 G 22 10.00 Fair CLR 87.1 73.9 65% 95 29.88 1011.7
01 18:53 SE 14 G 25 10.00 Fair CLR 93 71.1 102.9 93 49% 100 29.88 1011.4
01 17:53 SE 16 G 30 10.00 Fair CLR 97 71.1 43% 105 29.86 1010.9
01 16:53 E 8 G 17 10.00 A Few Clouds FEW080 102 66.9 32% 107 29.85 1010.5
01 14:53 SE 8 G 18 10.00 Fair CLR 99 64 32% 102 29.9 1012.1
01 13:53 S 7 10.00 Fair CLR 99 63 31% 101 29.93 1013.0
01 12:53 SE 8 9.00 Fair CLR 98.1 66.9 98.1 73.9 36% 103 29.95 1013.9
01 11:53 Vrbl 5 10.00 Fair CLR 93.9 66.9 41% 98 29.98 1014.8
01 10:53 S 9 10.00 Fair CLR 90 72 56% 97 29.98 1014.8
01 09:53 S 9 10.00 Fair CLR 87.1 73.9 65% 95 29.98 1014.9
01 08:53 S 6 10.00 Fair CLR 82 75.9 82% 89 29.99 1015.1
01 07:53 Calm 4.00 Fog/Mist CLR 75 73.9 96% 73 29.97 1014.5
01 06:53 S 5 5.00 Fog/Mist CLR 73.9 73.9 81 73.9 100% 29.95 1013.9
01 05:53 SE 5 6.00 Fog/Mist CLR 75 75 100% 72 29.95 1013.8
01 04:53 SE 3 8.00 Fair CLR 75.9 75 97% 75 29.95 1013.9
01 03:53 SE 3 8.00 Fair CLR 75 75 100% 72 29.96 1014.0
01 02:53 SE 3 10.00 A Few Clouds FEW020 78.1 75.9 93% 81 29.96 1014.1
01 01:53 SE 5 10.00 Fair CLR 79 75.9 90% 83 29.97 1014.3
01 00:53 S 7 10.00 Fair CLR 81 77 93 81 88% 88 29.97 1014.4
31 23:53 S 7 10.00 Fair CLR 82 75.9 82% 89 29.97 1014.3
31 22:53 SE 7 10.00 Mostly Cloudy BKN023 82.9 75.9 79% 91 29.97 1014.5
31 21:53 SE 10 10.00 Fair CLR 84 75 74% 92 29.95 1013.9
31 20:53 SE 13 10.00 Fair CLR 84.9 73 68% 92 29.93 1013.1
31 19:53 SE 13 G 28 10.00 Fair CLR 88 71.1 57% 94 29.9 1012.2
31 18:53 SE 16 G 25 10.00 Fair CLR 93 66.9 102 93 42% 97 29.89 1011.8
31 17:53 SE 20 G 32 10.00 Fair CLR 96.1 66 37% 100 29.88 1011.4
31 16:53 SE 14 10.00 Fair CLR 99 68 37% 105 29.88 1011.3
31 15:53 SE 15 G 22 10.00 Partly Cloudy SCT070 100.9 69.1 36% 108 29.89 1011.7
Date Time (cdt) Wind (mph) Vis. (mi.) Weather Sky Cond. Air Dwpt Max. Min. Relative Humidity Wind Chill (°F) Heat Index (°F) altimeter (in) sea level (mb) 1 hr 3 hr 6 hr
6 hour
Temperature (ºF) Pressure Precipitation (in)